Weather History for Ramona, CA

Change the Weather History Date:

Tuesday, January 21, 2014

  Actual Average Record
Temperature  
Mean Temperature 60 °F 50 °F  
Max Temperature 80 °F 65 °F 80 °F (1994)
Min Temperature 39 °F 35 °F 22 °F (2006)
Degree Days  
Heating Degree Days 5 15  
Month to date heating degree days 192 315  
Since 1 July heating degree days 1032 1203  
Cooling Degree Days 0 0  
Month to date cooling degree days 0 0  
Year to date cooling degree days 0 0  
Growing Degree Days 8 (Base 50)    
Moisture  
Dew Point 15 °F    
Average Humidity 25    
Maximum Humidity 44    
Minimum Humidity 5    
Precipitation  
Precipitation 0.00 in 0.11 in 2.32 in (2010)
Month to date precipitation 0.00 2.53  
Year to date precipitation 0.00 2.53  
Since 1 July precipitation 2.76 7.24  
Snow  
Snow 0.00 in - - ()
Month to date snowfall 0.0  
Year to date snowfall 0.0  
Since 1 July snowfall 0.0  
Snow Depth 0.00 in    
Sea Level Pressure  
Sea Level Pressure 30.10 in    
Wind  
Wind Speed 4 mph (East)    
Max Wind Speed 16 mph    
Max Gust Speed 20 mph    
Visibility 10 miles    
Events      
T = Trace of Precipitation, MM = Missing Value Source: NWS Daily Summary

Daily Weather History Graph

Daily Weather History Graph

Search for Another Location

Airport:

Trip Planner

Search our weather history database for the weather conditions in past years. The results will help you decide how hot, cold, wet, or windy it might be!

Date:

Astronomy

Jan. 21, 2014 Rise Set
Actual Time 6:48 AM PST 5:09 PM PST
Civil Twilight 6:22 AM PST 5:36 PM PST
Nautical Twilight 5:52 AM PST 6:06 PM PST
Astronomical Twilight 5:22 AM PST 6:35 PM PST
Moon 10:26 PM PST (1/21) 9:39 AM PST (1/21)
Length of Visible Light 11h 13m
Length of Day
10h 20m
Waning Gibbous, 73% of the Moon is Illuminated
Jan 21
Waning Gibbous
Jan 23
Last Quarter
Jan 30
New
Feb 6
First Quarter
Feb 14
Full

Hourly Weather History & Observations

Time (PST) Temp. Windchill Dew Point Humidity Pressure Visibility Wind Dir Wind Speed Gust Speed Precip Events Conditions
12:53 AM 43.0 °F 40.3 °F 18.0 °F 37% 30.14 in 10.0 mi ESE 4.6 mph - N/A   Clear
1:53 AM 44.1 °F - 17.1 °F 34% 30.14 in 10.0 mi Calm Calm - N/A   Clear
2:53 AM 39.0 °F - 18.0 °F 43% 30.15 in 10.0 mi Calm Calm - N/A   Clear
3:53 AM 39.0 °F - 19.0 °F 45% 30.13 in 10.0 mi Calm Calm - N/A   Clear
4:53 AM 42.1 °F - 19.0 °F 40% 30.13 in 10.0 mi Calm Calm - N/A   Clear
5:53 AM 42.1 °F 40.2 °F 21.9 °F 45% 30.14 in 10.0 mi ESE 3.5 mph - N/A   Clear
6:53 AM 44.1 °F 42.5 °F 21.0 °F 40% 30.14 in 10.0 mi ESE 3.5 mph - N/A   Clear
7:53 AM 48.0 °F - 23.0 °F 37% 30.15 in 10.0 mi ESE 3.5 mph - N/A   Clear
8:53 AM 73.0 °F - 9.0 °F 8% 30.14 in 10.0 mi NE 9.2 mph - N/A   Clear
9:53 AM 75.0 °F - -2.9 °F 5% 30.15 in 10.0 mi South 5.8 mph - N/A   Clear
10:53 AM 75.9 °F - 6.1 °F 7% 30.14 in 10.0 mi Calm Calm - N/A   Clear
11:53 AM 77.0 °F - 8.1 °F 7% 30.09 in 10.0 mi East 12.7 mph - N/A   Clear
12:53 PM 77.0 °F - 8.1 °F 7% 30.06 in 10.0 mi ENE 12.7 mph - N/A   Clear
1:53 PM 78.1 °F - 7.0 °F 7% 30.05 in 10.0 mi ENE 8.1 mph - N/A   Clear
2:53 PM 77.0 °F - 8.1 °F 7% 30.05 in 10.0 mi NE 5.8 mph - N/A   Clear
3:53 PM 75.0 °F - 10.9 °F 9% 30.06 in 10.0 mi NNE 6.9 mph - N/A   Clear
4:53 PM 70.0 °F - 12.0 °F 11% 30.06 in 10.0 mi NNE 3.5 mph - N/A   Clear
5:53 PM 62.1 °F - 16.0 °F 17% 30.08 in 10.0 mi Calm Calm - N/A   Clear
6:53 PM 60.1 °F - 19.9 °F 21% 30.10 in 10.0 mi Calm Calm - N/A   Clear
7:53 PM 59.0 °F - 19.9 °F 22% 30.09 in 10.0 mi Calm Calm - N/A   Clear
8:53 PM 55.9 °F - 21.9 °F 27% 30.07 in 10.0 mi Calm Calm - N/A   Clear
9:53 PM 55.0 °F - 23.0 °F 29% 30.07 in 10.0 mi Calm Calm - N/A   Clear
10:53 PM 55.0 °F - 19.0 °F 24% 30.07 in 10.0 mi Calm Calm - N/A   Clear
11:53 PM 52.0 °F - 24.1 °F 34% 30.05 in 10.0 mi South 4.6 mph - N/A   Clear